| time (UTC) | temp F | wind direction | speed MPH | gust MPH | rain 1hr in | rain 24hr in | rain mn in | humidity % | barometer mb |
| 20260901105904 | 51 | 311 | 3.0 | 5.0 | 0.00 | 0.00 | 0.00 | 78 | 1018.3 |
| 20260901104904 | 52 | 286 | 2.0 | 6.0 | 0.00 | 0.00 | 0.00 | 78 | 1018.2 |
| 20260901104404 | 52 | 267 | 5.0 | 9.0 | 0.00 | 0.00 | 0.00 | 77 | 1018.2 |
| 20260901103404 | 52 | 263 | 3.0 | 6.0 | 0.00 | 0.00 | 0.00 | 76 | 1018.2 |
| 20260901102405 | 52 | 272 | 3.0 | 8.0 | 0.00 | 0.00 | 0.00 | 76 | 1018.3 |
| 20260901101905 | 52 | 313 | 4.0 | 6.0 | 0.00 | 0.00 | 0.00 | 77 | 1018.2 |
| 20260901095404 | 53 | 246 | 7.0 | 12.0 | 0.00 | 0.00 | 0.00 | 77 | 1017.9 |
| 20260901094905 | 52 | 240 | 9.0 | 12.0 | 0.00 | 0.00 | 0.00 | 77 | 1017.8 |
| 20260901094404 | 52 | 239 | 7.0 | 12.0 | 0.00 | 0.00 | 0.00 | 78 | 1017.7 |
| 20260901093404 | 51 | 250 | 9.0 | 13.0 | 0.00 | 0.00 | 0.00 | 79 | 1017.7 |
| 20260901092404 | 52 | 244 | 10.0 | 13.0 | 0.00 | 0.00 | 0.00 | 78 | 1017.7 |
| 20260901090906 | 52 | 249 | 9.0 | 12.0 | 0.00 | 0.00 | 0.00 | 78 | 1017.8 |
| 20260901085404 | 52 | 247 | 12.0 | 15.0 | 0.00 | 0.00 | 0.00 | 78 | 1017.8 |
| 20260901084905 | 52 | 250 | 11.0 | 14.0 | 0.00 | 0.00 | 0.00 | 77 | 1017.8 |
| 20260901082905 | 52 | 237 | 12.0 | 14.0 | 0.00 | 0.00 | 0.00 | 78 | 1017.4 |
| 20260901081904 | 53 | 235 | 13.0 | 20.0 | 0.00 | 0.00 | 0.00 | 77 | 1017.4 |
| 20260901075905 | 54 | 236 | 16.0 | 20.0 | 0.00 | 0.00 | 0.00 | 77 | 1017.4 |
| 20260901075405 | 54 | 238 | 14.0 | 18.0 | 0.00 | 0.00 | 0.00 | 77 | 1017.4 |
| 20260901074405 | 54 | 227 | 17.0 | 21.0 | 0.00 | 0.00 | 0.00 | 78 | 1017.4 |
| 20260901073404 | 55 | 234 | 13.0 | 20.0 | 0.00 | 0.00 | 0.00 | 77 | 1017.2 |
| 20260901072904 | 54 | 240 | 14.0 | 17.0 | 0.00 | 0.00 | 0.00 | 77 | 1017.2 |
| 20260901072405 | 54 | 239 | 13.0 | 17.0 | 0.00 | 0.00 | 0.00 | 77 | 1017.0 |
| 20260901071404 | 54 | 248 | 20.0 | 24.0 | 0.00 | 0.00 | 0.00 | 76 | 1016.8 |
| 20260901065405 | 54 | 243 | 20.0 | 24.0 | 0.00 | 0.00 | 0.00 | 75 | 1016.8 |
| 20260901064405 | 55 | 247 | 17.0 | 24.0 | 0.00 | 0.00 | 0.00 | 73 | 1016.7 |
| 20260901063405 | 54 | 242 | 15.0 | 20.0 | 0.00 | 0.00 | 0.00 | 74 | 1016.6 |
| 20260901062905 | 54 | 237 | 18.0 | 24.0 | 0.00 | 0.00 | 0.00 | 74 | 1016.5 |
| 20260901061905 | 54 | 245 | 14.0 | 20.0 | 0.00 | 0.00 | 0.00 | 72 | 1016.3 |
| 20260901060405 | 54 | 240 | 13.0 | 16.0 | 0.00 | 0.02 | 0.00 | 73 | 1016.2 |
| 20260901055904 | 54 | 244 | 17.0 | 22.0 | 0.00 | 0.03 | 0.00 | 72 | 1016.2 |
| 20260901055404 | 54 | 238 | 14.0 | 20.0 | 0.00 | 0.03 | 0.00 | 71 | 1016.2 |
| 20260901054905 | 54 | 236 | 15.0 | 20.0 | 0.00 | 0.03 | 0.00 | 71 | 1016.2 |
| 20260901053904 | 54 | 245 | 16.0 | 22.0 | 0.00 | 0.03 | 0.00 | 73 | 1016.1 |
| 20260901051405 | 55 | 248 | 15.0 | 25.0 | 0.00 | 0.09 | 0.00 | 72 | 1016.0 |
| 20260901050405 | 56 | 241 | 21.0 | 28.0 | 0.00 | 0.09 | 0.00 | 70 | 1015.9 |
| 20260901045905 | 56 | 251 | 11.0 | 15.0 | 0.00 | 0.09 | 0.00 | 71 | 1015.9 |
| 20260901045404 | 56 | 243 | 17.0 | 24.0 | 0.00 | 0.09 | 0.00 | 70 | 1016.0 |
| 20260901044904 | 56 | 259 | 14.0 | 20.0 | 0.00 | 0.09 | 0.00 | 71 | 1016.0 |
| 20260901044404 | 56 | 264 | 14.0 | 20.0 | 0.00 | 0.09 | 0.00 | 70 | 1015.9 |
| 20260901041404 | 56 | 245 | 19.0 | 25.0 | 0.00 | 0.09 | 0.00 | 71 | 1015.3 |
| 20260901040905 | 57 | 256 | 18.0 | 25.0 | 0.00 | 0.09 | 0.00 | 72 | 1015.3 |
| 20260901040404 | 57 | 244 | 21.0 | 25.0 | 0.00 | 0.09 | 0.00 | 71 | 1015.2 |
| 20260901034404 | 57 | 226 | 26.0 | 30.0 | 0.00 | 0.11 | 0.00 | 72 | 1015.1 |
| 20260901033405 | 57 | 226 | 23.0 | 28.0 | 0.00 | 0.13 | 0.00 | 68 | 1014.9 |
| 20260901032404 | 58 | 254 | 14.0 | 24.0 | 0.00 | 0.14 | 0.00 | 67 | 1015.0 |
| 20260901031404 | 58 | 256 | 21.0 | 28.0 | 0.00 | 0.14 | 0.00 | 69 | 1014.8 |
| 20260901030404 | 57 | 249 | 18.0 | 25.0 | 0.00 | 0.14 | 0.00 | 69 | 1014.8 |
| 20260901024904 | 58 | 230 | 25.0 | 33.0 | 0.00 | 0.14 | 0.00 | 66 | 1014.7 |
| 20260901022904 | 57 | 254 | 18.0 | 26.0 | 0.00 | 0.14 | 0.00 | 71 | 1014.7 |
| 20260901022404 | 58 | 241 | 19.0 | 26.0 | 0.00 | 0.14 | 0.00 | 69 | 1014.7 |
| 20260901021405 | 58 | 212 | 14.0 | 21.0 | 0.00 | 0.14 | 0.00 | 70 | 1014.7 |
| 20260901020904 | 58 | 215 | 14.0 | 20.0 | 0.00 | 0.14 | 0.00 | 68 | 1014.7 |
| 20260901020404 | 58 | 236 | 17.0 | 24.0 | 0.00 | 0.14 | 0.00 | 67 | 1014.7 |
| 20260901015904 | 60 | 223 | 14.0 | 28.0 | 0.00 | 0.14 | 0.00 | 65 | 1014.7 |
| 20260901014404 | 58 | 242 | 27.0 | 35.0 | 0.00 | 0.15 | 0.00 | 65 | 1014.8 |
| 20260901013904 | 59 | 244 | 28.0 | 37.0 | 0.00 | 0.15 | 0.00 | 67 | 1014.8 |
| 20260901012404 | 58 | 238 | 26.0 | 33.0 | 0.00 | 0.15 | 0.00 | 65 | 1014.6 |
| 20260901010905 | 58 | 243 | 19.0 | 33.0 | 0.00 | 0.16 | 0.00 | 66 | 1014.6 |
| 20260901010405 | 59 | 231 | 22.0 | 35.0 | 0.00 | 0.16 | 0.00 | 64 | 1014.6 |
| 20260901005904 | 59 | 227 | 28.0 | 36.0 | 0.00 | 0.16 | 0.00 | 64 | 1014.8 |
| 20260901005404 | 59 | 241 | 29.0 | 35.0 | 0.00 | 0.16 | 0.00 | 67 | 1014.9 |
| 20260901004904 | 59 | 239 | 28.0 | 36.0 | 0.00 | 0.17 | 0.00 | 66 | 1015.0 |
| 20260901004403 | 59 | 234 | 28.0 | 33.0 | 0.00 | 0.18 | 0.00 | 67 | 1015.1 |
| 20260901003404 | 58 | 233 | 27.0 | 38.0 | 0.00 | 0.18 | 0.00 | 68 | 1015.3 |
| 20260901001404 | 59 | 240 | 24.0 | 31.0 | 0.00 | 0.18 | 0.00 | 68 | 1015.4 |
| 20260901000904 | 58 | 234 | 27.0 | 43.0 | 0.00 | 0.18 | 0.00 | 68 | 1015.4 |
| 20260831235404 | 58 | 249 | 24.0 | 31.0 | 0.00 | 0.19 | 0.00 | 68 | 1015.4 |
| 20260831234404 | 58 | 232 | 32.0 | 39.0 | 0.00 | 0.19 | 0.00 | 70 | 1015.1 |
| 20260831232904 | 57 | 243 | 25.0 | 33.0 | 0.00 | 0.19 | 0.00 | 75 | 1014.9 |
| 20260831232404 | 55 | 241 | 26.0 | 37.0 | 0.00 | 0.19 | 0.00 | 75 | 1014.8 |
| 20260831231404 | 58 | 239 | 28.0 | 37.0 | 0.00 | 0.19 | 0.00 | 71 | 1014.6 |
| 20260831230403 | 59 | 238 | 25.0 | 30.0 | 0.00 | 0.19 | 0.00 | 74 | 1014.4 |
| 20260831224904 | 57 | 243 | 30.0 | 39.0 | 0.00 | 0.19 | 0.00 | 72 | 1014.5 |
| 20260831222403 | 58 | 252 | 26.0 | 33.0 | 0.00 | 0.19 | 0.00 | 67 | 1014.4 |
| 20260831221403 | 57 | 233 | 22.0 | 39.0 | 0.00 | 0.19 | 0.00 | 68 | 1014.3 |
| 20260831220904 | 57 | 246 | 20.0 | 33.0 | 0.00 | 0.19 | 0.00 | 67 | 1014.2 |
| 20260831220404 | 58 | 233 | 25.0 | 33.0 | 0.00 | 0.20 | 0.00 | 65 | 1014.3 |
| 20260831215904 | 58 | 230 | 20.0 | 29.0 | 0.00 | 0.20 | 0.00 | 67 | 1014.4 |
| 20260831214404 | 57 | 230 | 25.0 | 36.0 | 0.00 | 0.20 | 0.00 | 67 | 1014.2 |
| 20260831213904 | 57 | 233 | 26.0 | 32.0 | 0.00 | 0.20 | 0.00 | 68 | 1014.1 |
| 20260831213404 | 56 | 240 | 20.0 | 33.0 | 0.00 | 0.20 | 0.00 | 70 | 1014.0 |
| 20260831212404 | 56 | 240 | 28.0 | 33.0 | 0.00 | 0.20 | 0.00 | 70 | 1013.8 |
| 20260831210904 | 56 | 238 | 23.0 | 30.0 | 0.00 | 0.20 | 0.00 | 72 | 1013.4 |
| 20260831210404 | 56 | 248 | 26.0 | 33.0 | 0.00 | 0.20 | 0.00 | 72 | 1013.5 |
| 20260831205404 | 55 | 238 | 27.0 | 35.0 | 0.00 | 0.20 | 0.00 | 70 | 1013.3 |
| 20260831204404 | 56 | 245 | 26.0 | 33.0 | 0.00 | 0.20 | 0.00 | 72 | 1013.2 |
| 20260831202904 | 55 | 247 | 24.0 | 33.0 | 0.00 | 0.20 | 0.00 | 73 | 1012.6 |
| 20260831201904 | 55 | 243 | 24.0 | 29.0 | 0.00 | 0.20 | 0.00 | 73 | 1012.7 |
| 20260831201405 | 55 | 252 | 22.0 | 31.0 | 0.00 | 0.20 | 0.00 | 72 | 1012.7 |
| 20260831200404 | 55 | 252 | 17.0 | 24.0 | 0.00 | 0.20 | 0.00 | 73 | 1012.6 |
| 20260831195903 | 55 | 260 | 17.0 | 26.0 | 0.00 | 0.20 | 0.00 | 73 | 1012.5 |
| 20260831195404 | 54 | 258 | 15.0 | 26.0 | 0.00 | 0.20 | 0.00 | 74 | 1012.4 |
| 20260831193405 | 53 | 246 | 14.0 | 17.0 | 0.00 | 0.20 | 0.00 | 77 | 1012.3 |
| 20260831191405 | 53 | 253 | 14.0 | 20.0 | 0.00 | 0.20 | 0.00 | 77 | 1012.1 |
| 20260831185905 | 53 | 244 | 12.0 | 15.0 | 0.00 | 0.20 | 0.00 | 77 | 1011.9 |
| 20260831185404 | 53 | 239 | 13.0 | 18.0 | 0.00 | 0.20 | 0.00 | 77 | 1011.9 |
| 20260831184905 | 53 | 232 | 13.0 | 17.0 | 0.00 | 0.20 | 0.00 | 77 | 1011.8 |
| 20260831184405 | 53 | 243 | 13.0 | 18.0 | 0.00 | 0.20 | 0.00 | 77 | 1011.7 |
| 20260831183905 | 53 | 231 | 14.0 | 22.0 | 0.00 | 0.20 | 0.00 | 76 | 1011.6 |
| 20260831183405 | 53 | 241 | 14.0 | 23.0 | 0.00 | 0.20 | 0.00 | 76 | 1011.6 |
| 20260831182404 | 54 | 235 | 16.0 | 23.0 | 0.00 | 0.20 | 0.00 | 74 | 1011.6 |
| 20260831180405 | 53 | 250 | 13.0 | 18.0 | 0.00 | 0.20 | 0.00 | 74 | 1011.2 |
| 20260831174905 | 53 | 243 | 17.0 | 23.0 | 0.00 | 0.20 | 0.00 | 73 | 1011.0 |
| 20260831174405 | 54 | 244 | 18.0 | 24.0 | 0.00 | 0.20 | 0.00 | 72 | 1010.9 |
| 20260831173905 | 54 | 240 | 17.0 | 22.0 | 0.00 | 0.20 | 0.00 | 72 | 1010.8 |
| 20260831173405 | 54 | 237 | 17.0 | 24.0 | 0.00 | 0.20 | 0.00 | 73 | 1010.8 |
| 20260831172906 | 54 | 248 | 18.0 | 24.0 | 0.00 | 0.20 | 0.00 | 73 | 1010.7 |
| 20260831172405 | 54 | 240 | 17.0 | 21.0 | 0.00 | 0.20 | 0.00 | 74 | 1010.8 |
| 20260831171404 | 55 | 240 | 20.0 | 25.0 | 0.00 | 0.20 | 0.00 | 74 | 1010.6 |
| 20260831170905 | 55 | 232 | 22.0 | 30.0 | 0.00 | 0.20 | 0.00 | 75 | 1010.5 |
| 20260831170405 | 55 | 244 | 18.0 | 25.0 | 0.00 | 0.20 | 0.00 | 76 | 1010.3 |
| 20260831165904 | 55 | 242 | 16.0 | 20.0 | 0.00 | 0.20 | 0.00 | 77 | 1010.2 |
| 20260831164905 | 55 | 240 | 20.0 | 24.0 | 0.00 | 0.20 | 0.00 | 77 | 1009.9 |
| 20260831164405 | 55 | 236 | 21.0 | 26.0 | 0.00 | 0.20 | 0.00 | 77 | 1009.8 |
| 20260831163905 | 54 | 252 | 14.0 | 18.0 | 0.00 | 0.20 | 0.00 | 78 | 1009.6 |
| 20260831162405 | 55 | 250 | 13.0 | 20.0 | 0.00 | 0.20 | 0.00 | 80 | 1009.7 |
| 20260831161904 | 55 | 243 | 13.0 | 17.0 | 0.00 | 0.20 | 0.00 | 80 | 1009.6 |
| 20260831161405 | 55 | 243 | 16.0 | 23.0 | 0.00 | 0.20 | 0.00 | 80 | 1009.5 |
| 20260831153405 | 55 | 251 | 21.0 | 28.0 | 0.00 | 0.20 | 0.00 | 80 | 1009.4 |
| 20260831152405 | 54 | 250 | 16.0 | 23.0 | 0.00 | 0.20 | 0.00 | 81 | 1009.5 |
| 20260831151905 | 54 | 248 | 20.0 | 24.0 | 0.00 | 0.20 | 0.00 | 81 | 1009.6 |
| 20260831145905 | 54 | 252 | 20.0 | 26.0 | 0.00 | 0.20 | 0.00 | 81 | 1009.6 |
| 20260831142905 | 47 | 241 | 25.0 | 32.0 | 0.00 | 0.20 | 0.00 | 81 | 1009.8 |
| 20260831142405 | 54 | 241 | 24.0 | 32.0 | 0.00 | 0.20 | 0.00 | 81 | 1009.8 |
| 20260831141405 | 47 | 239 | 31.0 | 40.0 | 0.00 | 0.20 | 0.00 | 82 | 1009.9 |
| 20260831140905 | 53 | 236 | 39.0 | 44.0 | 0.00 | 0.20 | 0.00 | 80 | 1010.0 |
| 20260831135905 | 52 | 262 | 19.0 | 24.0 | 0.00 | 0.20 | 0.00 | 82 | 1009.4 |
| 20260831135405 | 52 | 251 | 20.0 | 26.0 | 0.00 | 0.20 | 0.00 | 82 | 1009.3 |
| 20260831134906 | 47 | 260 | 17.0 | 26.0 | 0.00 | 0.20 | 0.00 | 81 | 1009.6 |
| 20260831134405 | 55 | 255 | 17.0 | 24.0 | 0.00 | 0.20 | 0.00 | 80 | 1009.7 |
| 20260831133905 | 55 | 252 | 22.0 | 28.0 | 0.00 | 0.20 | 0.00 | 80 | 1009.7 |
| 20260831133405 | 55 | 251 | 16.0 | 21.0 | 0.00 | 0.20 | 0.00 | 80 | 1009.7 |
| 20260831132905 | 48 | 245 | 16.0 | 25.0 | 0.00 | 0.20 | 0.00 | 81 | 1009.7 |
| 20260831132405 | 49 | 242 | 16.0 | 20.0 | 0.00 | 0.20 | 0.00 | 82 | 1009.8 |
| 20260831131905 | 49 | 250 | 12.0 | 15.0 | 0.00 | 0.20 | 0.00 | 82 | 1009.7 |
| 20260831130905 | 50 | 258 | 13.0 | 17.0 | 0.00 | 0.20 | 0.00 | 82 | 1009.7 |
| 20260831125405 | 51 | 260 | 14.0 | 20.0 | 0.00 | 0.20 | 0.00 | 93 | 1009.5 |
| 20260831124905 | 51 | 254 | 14.0 | 18.0 | 0.00 | 0.20 | 0.00 | 93 | 1009.4 |
| 20260831124406 | 51 | 257 | 14.0 | 20.0 | 0.00 | 0.20 | 0.00 | 93 | 1009.4 |
| 20260831123905 | 51 | 259 | 17.0 | 20.0 | 0.00 | 0.20 | 0.00 | 93 | 1009.4 |
| 20260831123405 | 51 | 266 | 16.0 | 20.0 | 0.00 | 0.20 | 0.00 | 93 | 1009.3 |
| 20260831122405 | 51 | 278 | 13.0 | 20.0 | 0.00 | 0.20 | 0.00 | 93 | 1009.2 |
| 20260831121405 | 51 | 264 | 17.0 | 25.0 | 0.00 | 0.20 | 0.00 | 93 | 1009.1 |
| 20260831120405 | 54 | 259 | 15.0 | 20.0 | 0.00 | 0.20 | 0.00 | 93 | 1009.3 |
| 20260831112905 | 53 | 247 | 17.0 | 21.0 | 0.00 | 0.20 | 0.20 | 93 | 1009.4 |
| 20260831111905 | 53 | 251 | 16.0 | 20.0 | 0.00 | 0.20 | 0.20 | 93 | 1009.3 |
| 20260831111404 | 53 | 261 | 13.0 | 17.0 | 0.00 | 0.20 | 0.20 | 93 | 1009.2 |
| 20260831110904 | 53 | 259 | 13.0 | 18.0 | 0.00 | 0.20 | 0.20 | 93 | 1009.3 |